Details From UWSS - Tsentralny
To UGTB - Tbilisi
Flight Number -
Tags Generated
Created
Modified
Stats Distance 596 nm / 1,104 km
Max Altitude 0 ft / 0 m
Waypoints 4
Social Downloads 2
Likes 0
Share VATSIM

Download

Looking for another format? Having issues loading an existing format? Contact us
Advertisement - Login to hide

Notes

Generated

Route

UWSS RELIK V UGTB

ID Type Via Altitude Latitude Longitude Leg Dist Tot Dist Heading (true) Name
O UWSS APT - 0 ft / 0 m 51.57167˚ 46.03333˚ - 0 nm - -
RELIK FIX - 0 ft / 0 m 46.30000˚ 45.36667˚ 317 nm 317 nm 185° / 184° -
V NDB - 0 ft / 0 m 41.68278˚ 44.93369˚ 277 nm 595 nm 184° / 184° LOCHINI NDB
O UGTB APT - 0 ft / 0 m 41.67691˚ 44.94389˚ 0 nm 596 nm 128° / 128° -

Altitude Profile

Advertisement - Login to hide

Weather


0- 5 10 15 20 25 30 35+ Temperature / ° C

Clouds and Precipitation
Forecast for 2018-05-27 18:00 UTC. Updated 5 hours ago

Ground ~20,000 ft ~40,000 ft Winds

UWSS

Details ICAO UWSS (RTW)
Name TSENTRALNY
Region Russia
Timezone Europe/Volgograd (UTC+3.0)
Stats Elevation 499 ft / 152 m (AMSL)
Location 51.565833° 46.046667°
Runways 1
Magnetic Variation 10.677° E

METAR

UWSS 272200Z 27007MPS CAVOK 15/M01 Q1021 R30/010095 NOSIG RMK QFE752

Decode

TAF

Not found

Departure Runways

ID Width Length Bearing (true) Bearing (mag) Surface Threshold Offset Overrun Length
12 138 ft / 42 m 7,397 ft / 2,255 m 125.13° 114.45° Asphalt 0 ft / 0 m 95 ft / 29 m
30 138 ft / 42 m 7,397 ft / 2,255 m 305.15° 294.47° Asphalt 0 ft / 0 m 95 ft / 29 m

UGTB

Details ICAO UGTB (TBS)
Name TBILISI
Region Georgia
Timezone Asia/Tbilisi (UTC+4.0)
Stats Elevation 1,624 ft / 495 m (AMSL)
Location 41.668582° 44.953644°
Runways 2
Magnetic Variation 6.682° E

METAR

UGTB 272200Z 07009KT 9999 SCT028CB BKN039 16/11 Q1027 NOSIG

Decode

TAF

Not found

Destination Runways

ID Width Length Bearing (true) Bearing (mag) Surface Threshold Offset Overrun Length
13L 196 ft / 60 m 8,208 ft / 2,502 m 133.64° 126.96° Asphalt 0 ft / 0 m 0 ft / 0 m
13R 147 ft / 45 m 9,839 ft / 2,999 m 136.65° 129.97° Concrete 0 ft / 0 m 155 ft / 47 m
31L 147 ft / 45 m 9,839 ft / 2,999 m 316.67° 309.99° Concrete 0 ft / 0 m 150 ft / 46 m
31R 196 ft / 60 m 8,208 ft / 2,502 m 313.65° 306.97° Asphalt 0 ft / 0 m 0 ft / 0 m

Approach Navaids

Runway Type Ident Frequency Range Bearing (true) Bearing (mag) Slope Elevation
13R Localiser IVP 110.30 MHz 18 nm / 33 km 136.69° 130.01° - 1,624 ft / 495 m (AMSL)
13R Glidescope IVP 110.30 MHz 10 nm / 19 km 136.66° 129.98° 3.00° 1,657 ft / 505 m (AMSL)
31L Localiser INA 108.90 MHz 18 nm / 33 km 316.65° 309.96° - 1,624 ft / 495 m (AMSL)
31L Glidescope INA 108.90 MHz 10 nm / 19 km 316.66° 309.98° 3.00° 1,624 ft / 495 m (AMSL)